#timestamp,LO_Frequency,Hit,StdDev 
1668254415.8,286046994.9,Y
1668254435.6,286046997.1,P
1668254455.5,286046997.5,P
1668254475.3,286046997.8,P
1668254495.1,286046997.1,Y
1668254515.9,286046998.5,P
1668254535.7,286046998.8,N
1668254555.5,286046998.3,P
1668254575.4,286046999.2,N
1668254595.2,286046998.7,N
1668254615.1,286046998.7,N
1668254616.0,286046998.7,N
1668254635.8,286046999.0,N
1668254655.7,286046999.1,N
1668254675.5,286046999.0,N
1668254695.3,286046999.6,N
1668254715.2,286046999.2,N
1668254735.9,286046996.7,Y
1668254755.7,286046998.3,P
1668254775.6,286047001.2,P
1668254795.4,286046998.8,N
1668254815.3,286046999.0,N
1668254835.1,286046998.3,N
1668254836.0,286046998.3,N
1668254855.8,286046998.7,N
1668254875.7,286046998.5,N
1668254895.5,286046998.2,N
1668254915.3,286046998.4,N
1668254935.2,286047001.2,N
1668254955.0,286047001.0,N
1668254955.9,286047001.0,N
1668254975.8,286047000.6,N
1668254995.6,286047000.7,N
1668255015.4,286047000.7,N
1668255035.3,286047000.6,N
1668255055.1,286047000.8,N
1668255075.8,286047000.8,N
1668255095.7,286047000.9,N
1668255115.5,286047001.0,N
1668255135.4,286047000.8,N
1668255155.2,286047000.9,N
1668255175.0,286047000.6,N
1668255175.9,286047000.6,N
1668255195.8,286047000.8,N
1668255215.6,286047001.1,N
1668255235.5,286047001.2,N
1668255255.3,286046998.8,N
1668255275.1,286046998.9,N
1668255295.9,286046998.9,N
1668255315.7,286046997.1,N
1668255335.5,286046996.6,N
1668255355.4,286046999.2,N
1668255375.2,286046996.9,N
1668255395.1,286046999.4,N
1668255396.0,286046999.4,N
1668255415.8,286046999.2,N
1668255435.6,286046998.9,N
1668255455.5,286046999.5,N
1668255475.3,286046998.8,N
1668255495.1,286046998.8,N
1668255515.9,286046998.8,N
1668255535.7,286046998.9,N
1668255555.6,286046996.5,N
1668255575.4,286046998.9,N
1668255595.2,286046999.0,N
1668255615.1,286046996.9,N
1668255616.0,286046996.9,N
1668255635.8,286046997.3,N
1668255655.6,286046997.5,N
1668255675.5,286046995.0,Y
1668255695.3,286046996.6,P
1668255715.2,286046999.4,N
1668255735.9,286046996.5,N
1668255755.7,286046997.7,N
1668255775.6,286046997.2,N
1668255795.4,286046999.5,N
1668255815.2,286046997.1,N
1668255835.1,286046997.3,N
1668255836.0,286046997.3,N
1668255855.8,286046997.2,N
1668255875.7,286046997.8,N
1668255895.5,286046997.7,N
1668255915.3,286046999.2,N
1668255935.2,286046999.0,N
1668255955.0,286046999.1,N
1668255955.9,286046999.1,N
1668255975.8,286046998.6,N
1668255995.6,286046998.3,N
1668256015.4,286046998.5,N
1668256035.3,286046999.3,N
1668256055.1,286046998.8,N
1668256075.8,286046996.6,Y
1668256095.7,286047000.9,P
1668256115.5,286047000.0,N
1668256135.4,286047000.1,N
1668256155.2,286047001.2,N
1668256175.0,286046999.0,N
1668256175.9,286046999.0,N
1668256195.8,286046999.1,N
1668256215.6,286046999.5,N
1668256235.5,286046999.4,N
1668256255.3,286046998.5,N
1668256275.1,286046998.3,N
1668256295.9,286046997.0,Y
1668256315.7,286046999.2,P
1668256335.5,286047000.0,N
1668256355.4,286047000.3,N
1668256375.2,286046999.9,N
1668256395.1,286047000.9,N
1668256396.0,286047000.9,N
1668256415.8,286047000.8,N
1668256435.6,286047001.0,N
1668256455.5,286047000.6,N
1668256475.3,286047000.5,N
1668256495.2,286047000.1,N
1668256515.9,286047002.2,Y
1668256535.7,286047002.7,P
1668256555.6,286047000.4,N
1668256575.4,286047002.1,N
1668256595.3,286047001.9,N
1668256615.1,286047004.0,Y
1668256616.0,286047004.0,P
1668256635.8,286047002.7,N
1668256655.7,286047002.6,N
1668256675.5,286047000.3,N
1668256695.3,286047000.2,N
1668256715.2,286047001.0,N
1668256735.0,286047000.0,N
1668256735.9,286047000.0,N
1668256755.8,286047001.0,N
1668256775.6,286047000.4,N
1668256795.4,286046998.1,N
1668256815.3,286047000.5,N
1668256835.1,286047000.6,N
1668256855.9,286047000.3,N
1668256875.7,286047002.0,N
1668256895.5,286047002.6,N
1668256915.4,286047002.8,N
1668256935.2,286046999.8,N
1668256955.0,286046999.9,N
1668256955.9,286046999.9,N
1668256975.8,286047002.6,N
1668256995.6,286047002.5,N
1668257015.5,286047002.4,N
1668257035.3,286047002.5,N
1668257055.1,286047002.6,N
1668257075.9,286047001.7,N
1668257095.7,286047001.9,N
1668257115.5,286047002.7,N
1668257135.4,286047002.0,N
1668257155.2,286047002.5,N
1668257175.1,286047002.6,N
1668257176.0,286047002.6,N
1668257195.8,286047002.8,N
1668257215.6,286047002.5,N
1668257235.5,286047002.6,N
1668257255.3,286047002.6,N
1668257275.1,286046999.7,N
1668257295.9,286047000.1,N
1668257315.7,286046999.8,N
1668257335.6,286047002.3,N
1668257355.4,286046999.8,N
1668257375.2,286047002.3,N
1668257395.1,286047001.4,N
1668257396.0,286047001.4,N
1668257415.8,286047001.8,N
1668257435.6,286047003.9,Y
1668257455.5,286047002.1,P
1668257475.3,286047001.7,P
1668257495.2,286047001.3,P
1668257515.9,286047001.6,Y
1668257535.7,286046999.9,P
1668257555.6,286047002.7,N
1668257575.4,286047000.4,N
1668257595.3,286047000.0,N
1668257615.1,286047000.0,N
1668257616.0,286047000.0,N
1668257635.8,286047000.5,N
1668257655.7,286046999.7,N
1668257675.5,286046999.7,N
1668257695.4,286046999.9,N
1668257715.2,286047000.4,N
1668257735.0,286046999.7,N
1668257735.9,286046999.7,N
1668257755.8,286047000.2,N
1668257775.6,286047000.0,N
1668257795.5,286047000.3,N
1668257815.3,286046999.8,N
1668257835.1,286047002.3,Y
1668257855.9,286046999.7,P
1668257875.7,286046999.7,N
1668257895.6,286046999.9,N
1668257915.4,286047001.2,Y
1668257935.2,286046999.9,P
1668257955.1,286047000.1,P
1668257956.0,286047000.1,N
1668257975.8,286047002.8,Y
1668257995.6,286047000.5,P
